NOAA 16 DEB, 41275

Orbit data source: Space-Track

NOAA 16 DEB, 41275 is space debris in SSO originally from a launch on Thu, 21 Sep 2000 UTC launched from the Air Force Western Test Range (AFWTR). Debris objects in space refer to the collection of defunct objects orbiting the Earth. Examples of debris include non-operational satellites, rocket bodies, and fragments generated from explosions, collisions, or faulty payload assembly.

Loading next visibility...
Identifier
41275, 2000-055GB
Orbit
SSO
Country
Flag of USUS
Related business
Manufacturer
Unknown
Mission
Spacecraft
Bus & Motor
Unknown
Mass
Unknown
Launch date (UTC)
2000-09-21 (25 years ago)
Launch vehicle
Unknown
Launch site
Air Force Western Test Range (AFWTR)
Object type
Payload
Rocket body
Debris
Shape & HBR
Unknown shape, 0.1 m
Radar Cross Section
Small (<0.1 m²)

Expand to show TLE details & history
Last TLE update: 2 days ago

TLE from 2 days ago
0 NOAA 16 DEB
1 41275U 00055GB  25299.10008080  .00004700  00000-0  20115-2 0  9995
2 41275  98.6885 350.3016 0021404 128.1738 232.1373 14.25238767507844
Epoch: 2025-10-26T02:24Z
TLE epoch observation values (Epoch: 2025-10-26T02:24:06.981Z)
Latitude
-0.00007°
Longitude
-80.44861°
Altitude
820.075 km
Speed
7.438 km/s
True Right ascension
23h 21m 12s
True Declination
0° 00' 00"
Sunlit
Object was in full shadow at epoch
Visualization orbit readout
Latitude
Unknown
Longitude
Unknown
Altitude
Unknown
Speed
Unknown
Apparent Right ascension
Unknown
Apparent Declination
Unknown
Sunlit
N/A
Visualization observer readout
Local Sidereal Time
16:36:17
Azimuth
Unknown
Elevation
Unknown
Doppler factor
Unknown
Orbital elements
Apogee altitude
820.215 km
Perigee altitude
789.466 km
Semi-major axis
7,182.978 km
Eccentricity
0.00214
Inclination
98.6885°
RAAN
350.3016°
Arg. of periapsis
128.1738°
True anomaly
231.94398°
Mean anomaly
232.1373°
Eccentric anomaly
232.04061°
Mean motion
3.56522 °/min
Orbital period
100.98 mins
BSTAR
0.0020115
Loading maneuver chart data...
Computing Atmospheric mass density...
Loading historical data...
Loading historical data...
Loading historical data...
Loading historical data...
Loading historical data...
Loading historical data...
Loading historical data...

Documentation

Showing up to 5 results
|